Location: Vassar Physics Lab
(41.6843°N, 73.8954°W)
Time: 11:20:49
(UTC-05:00)

CZ-4B DEB - Visible Passes

Search period start: 23 February 2017 00:00
Search period end: 05 March 2017 00:00
Orbit: 841 x 863 km, 99.0° (Epoch: 22 February)

Date Brightness Start Highest point End Pass type
(mag) Time Alt. Az. Time Alt. Az. Time Alt. Az.
23 Feb 4.9 03:39:02 10° NNE 03:43:20 50° NE 03:43:20 50° NE visible
23 Feb 5.5 05:20:52 10° NNW 05:24:43 20° WNW 05:25:23 19° WNW visible
24 Feb 5.2 03:27:41 10° NNE 03:31:56 43° ENE 03:31:56 43° ENE visible
24 Feb 5.2 05:09:04 10° NNW 05:13:25 24° WNW 05:13:59 24° WNW visible
25 Feb 5.6 03:16:23 10° NNE 03:20:32 36° ENE 03:20:32 36° ENE visible
25 Feb 5.0 04:57:21 10° N 05:02:05 30° WNW 05:02:34 29° WNW visible
26 Feb 5.9 03:05:10 10° NE 03:09:08 29° ENE 03:09:08 29° ENE visible
26 Feb 4.7 04:45:42 10° N 04:50:44 37° WNW 04:51:10 36° WNW visible
27 Feb 6.2 02:54:01 10° NE 02:57:43 24° E 02:57:43 24° E visible
27 Feb 4.4 04:34:07 10° N 04:39:23 46° WNW 04:39:46 45° W visible
28 Feb 6.5 02:43:00 10° NE 02:46:19 19° E 02:46:19 19° E visible
28 Feb 4.2 04:22:33 10° N 04:27:59 57° WNW 04:28:22 56° W visible
01 Mar 6.7 02:32:11 10° NE 02:34:55 15° E 02:34:55 15° E visible
01 Mar 4.1 04:11:02 10° N 04:16:35 72° WNW 04:16:57 69° WSW visible
01 Mar 6.1 05:55:00 10° NW 05:56:17 11° NW 05:57:35 10° WNW visible
02 Mar 6.9 02:21:49 10° ENE 02:23:30 12° E 02:23:30 12° E visible
02 Mar 4.1 03:59:34 10° NNE 04:05:09 89° WNW 04:05:33 78° SSW visible
02 Mar 5.9 05:42:24 10° NNW 05:45:02 14° WNW 05:47:36 10° W visible
03 Mar 4.3 03:48:07 10° NNE 03:53:42 74° ESE 03:54:09 70° SE visible
03 Mar 5.7 05:30:20 10° NNW 05:33:46 17° WNW 05:36:12 13° W visible
04 Mar 4.6 03:36:45 10° NNE 03:42:14 59° E 03:42:44 56° SE visible
04 Mar 5.5 05:18:27 10° NNW 05:22:28 21° WNW 05:24:47 16° W visible
